Regional Weather Roundup
Issued by NWS Grand Forks, ND

Home | Current Version | Previous Version | Graphics & Text | Print | Product List | Glossary On
Versions: 1 2 3 4 5 6 7 8 9 10 11 12 13 14 15 16 17 18 19 20 21 22 23 24 25 26 27 28 29 30 31 32 33 34 35 36 37 38 39 40 41 42 43 44 45 46 47 48 49 50
000
ASUS43 KFGF 250931
RWRFGF
PRAIRIE TO PINES  WEATHER ROUNDUP
NATIONAL WEATHER SERVICE EASTERN NORTH DAKOTA/GRAND FORKS ND
400 AM CDT MON JUL 25 2016

 **SATELLITE DATA USED TO AUGMENT SKY COVER AT AUTOMATED STATIONS**
 *****  WEATHER ACROSS EASTERN NORTH DAKOTA  *****

CITY           SKY/WX    TMP DP  RH WIND       PRES   REMARKS
GRAND FORKS    CLEAR     61  57  87 W5        29.98R
GRAND FRKS AFB CLEAR     62  59  88 W8        29.99R
GRAND FRKS NWS   N/A     59 N/A N/A W3          N/A
DEVILS LAKE    CLEAR     64  60  87 SW6       30.03
FARGO          CLEAR     62  57  83 SW3       30.00S
WAHPETON ARPT  SUNNY     59  54  82 W5        30.03R
$$

 ***** WEATHER ACROSS CENTRAL AND WESTERN NORTH DAKOTA  *****

CITY           SKY/WX    TMP DP  RH WIND       PRES   REMARKS
BISMARCK       CLEAR     61  59  93 NE6       30.03S
MINOT          CLEAR     63  59  87 CALM      30.01F
JAMESTOWN      CLEAR     60  58  92 CALM      30.03S
MINOT AFB      CLEAR     57  55  94 S2        30.00F
GARRISON         N/A     59  57  93 E5        30.02F
WILLISTON      CLEAR     62  56  80 N6        29.98F
DICKINSON      CLEAR     57  51  80 SE9       30.00F
HETTINGER      CLEAR     64  49  57 SE6       30.05F
$$

 *****  OTHER AIRPORT OBSERVATIONS IN OUR AREA  *****

CITY           SKY/WX    TMP DP  RH WIND       PRES   REMARKS
WALHALLA       FAIR      63  57  82 SW5       29.98R
GRAFTON AIRPOR FAIR      63  63 100 W7        29.99S
VALLEY CITY AR   N/A     59  59 100 CALM      30.06R
CANDO          FAIR      57  57 100 NW3       30.04S
CAVALIER APRT  FAIR      61  59  94 W5        29.97S
GWINNER        FAIR      61  57  88 W7        30.04S
SHEYENNE NWR     N/A     59  57  92 W3        29.95S
ROLLA          FAIR      55  55 100 SW6       30.04R
 ***** THE ABOVE OBSERVATIONS ARE NON NWS ARE NOT QUALITY
       CONTROLLED AND MAY MIS-REPORT RAIN FOR SNOW...
$$

  *****  WEATHER ACROSS NORTHERN MINNESOTA  *****

CITY           SKY/WX    TMP DP  RH WIND       PRES   REMARKS
FLAG ISLAND    CLEAR     63  59  88 W8        29.93S
WARROAD        CLEAR     61  57  88 W5        29.96R
ROSEAU         CLEAR     61  55  82 W5        29.96S
HALLOCK        CLEAR     61  59  94 CALM      29.96S
THF RVR FALLS  CLEAR     61  59  94 CALM      30.00R FOG
BAUDETTE       CLEAR     60  58  92 W6        29.95R
WASKISH        CLEAR     66  63  88 NW5       29.97R
CROOKSTON      CLEAR     61  57  88 CALM      30.00R
STEPHEN NDAWN    N/A    N/A N/A N/A W2          N/A
GREENBUSH NDAW   N/A     59  59 100 SW3         N/A
$$
  *****  WEATHER ACROSS CENTRAL AND WEST MINNESOTA  *****

CITY           SKY/WX    TMP DP  RH WIND       PRES   REMARKS
FOSSTON        CLEAR     55  54  94 S3        30.01R
BEMIDJI        CLEAR     59  57  94 W3        30.00R
PARK RAPIDS    CLEAR     60  56  86 W6        30.01R
ELBOW LAKE     FAIR      60  58  92 CALM      30.04S
WADENA         CLEAR     59  57  94 W5        30.02S
DETROIT LAKES  CLEAR     64  59  82 W6        30.04R
MOORHEAD       CLEAR     61  57  88 SW5       30.02R
FERGUS FALLS   CLEAR     61  61 100 CALM      30.04S
MORRIS MN      CLEAR     61  59  94 CALM      30.03S
STAPLES        CLEAR     59  57  94 W6        30.02R
$$
  *****  WEATHER ELSEWHERE ACROSS MINNESOTA  *****

CITY           SKY/WX    TMP DP  RH WIND       PRES   REMARKS
DULUTH         CLEAR     63  60  90 W9        29.96R
INTRNTL FALLS  CLEAR     59  58  96 W5        29.94R
ELY            CLEAR     61  55  82 W5        29.94R
CLOQUET        CLEAR     63  57  82 W6        29.97S
WHEATON        CLEAR     64  61  88 SW5       30.05R
BRAINERD       CLEAR     65  59  81 W7        30.00R
HIBBING        CLEAR     60  58  92 W5        29.96R
ALEXANDRIA     CLEAR     62  58  86 W3        30.05R
SAINT CLOUD    CLEAR     62  60  93 CALM      30.00S
MINNEAPOLIS    PTCLDY    69  60  73 W3        30.01S
$$

  *****  WEATHER ACROSS SOUTH DAKOTA  *****

CITY           SKY/WX    TMP DP  RH WIND       PRES   REMARKS
SIOUX FALLS    CLEAR     63  58  83 CALM      30.07F
BROOKINGS      CLEAR     62  59  90 CALM      30.08F
WATERTOWN      CLEAR     63  60  90 CALM      30.07F
HURON          CLEAR     65  58  78 S5        30.05F
SISSETON         N/A     59  57  93 CALM      30.03R
ABERDEEN       CLEAR     59  56  89 S5        30.04F
MITCHELL       CLEAR     67  60  78 S5        30.07F
PIERRE         CLEAR     68  55  63 S7        30.04F
MOBRIDGE       CLEAR     66  57  72 SE9       30.02F
RAPID CITY     CLEAR     70  54  56 S10       30.09F
$$

  *****  SOME WEATHER IN NEARBY STATES *****

CITY           SKY/WX    TMP DP  RH WIND       PRES   REMARKS
GLASGOW MT     CLEAR     61  52  72 E10       29.97S
GREAT FALLS MT CLEAR     57  42  57 SW10      30.05S
CHEYENNE WY    CLEAR     58  54  86 SW18      30.25F
SCOTTSBLUFF NE CLEAR     60  55  83 E8        30.17S
OMAHA NE       PTCLDY    69  63  81 N8        30.05R
DES MOINES IA  PTCLDY    71  64  78 N5        30.04R
DAVENPORT IA   CLOUDY    68  66  93 CALM      30.02R
CHICAGO IL     CLOUDY    74  68  81 W9        29.96F
EAU CLAIRE WI  CLEAR     66  62  87 SW5       29.98S
LA CROSSE WI   CLEAR     69  64  84 CALM      29.99S
$$

  *****  SOME NATIONAL WEATHER *****

CITY           SKY/WX    TMP DP  RH WIND       PRES   REMARKS
LA GUARDIA NY  CLOUDY    81  67  62 S10       29.92F
RALEIGH NC     CLEAR     77  74  90 SW6       30.04R
ATLANTA GA     PTCLDY    78  70  76 CALM      30.06R
NEW ORLEANS LA CLOUDY    81  76  84 CALM      29.93R
OKLAHOMA CITY  CLOUDY    78  71  79 S5        29.97R
ALBUQUERQUE NM MOCLDY    73  55  53 NW8       30.22R
SALT LAKE CITY CLEAR     74  40  29 SE7       30.03S
LOS ANGELES CA PTCLDY    70  65  84 E3        29.92S
BOISE ID       CLEAR     69  34  27 SE8       29.97R
SEATTLE WA     CLEAR     65  55  70 N6        30.03S
$$

*** WEATHER ACROSS MANITOBA...SASKATCHEWAN AND ONTARIO ***
                ***ONTARIO***

CITY           SKY/WX    TMP DP  RH WIND       PRES   REMARKS
GERALDTON      CLOUDY    63  63 100 W5        29.71R
THUNDER BAY    PTCLDY    66  59  77 W10       29.80R
SIOUX LOOKOUT  PTCLDY    61  59  94 W3        29.87R
TORONTO        TSTM      73  72  94 S9        29.83F
BIG TROUT LK   CLOUDY    57  55  94 NW9G18    29.66
PICKLE LAKE    NOT AVBL
DRYDEN         CLEAR     59  57  94 W8        29.90R
KENORA         CLEAR     61  59  94 W7        29.93R
$$
                *** MANITOBA***

CITY           SKY/WX    TMP DP  RH WIND       PRES   REMARKS
BRANDON        CLEAR     52  52 100 W6        29.98S
DAUPHIN        CLEAR     59  55  88 SW8       29.92S
ISLAND LAKE    PTCLDY    63  61  94 W6        29.80R
PILOT MOUND      N/A     54  52  94 SW6         N/A
THE PAS        PTCLDY    64  57  77 SW8       29.77F
THOMPSON       PTCLDY    57  55  94 SE3       29.71F
WINNIPEG       CLEAR     63  61  94 W8        29.93R
LYNN LAKE      PTCLDY    59  54  82 MISG      29.63F
CHURCHILL      FOG       43  43 100 S10       29.75S VSB 1/4
GILLAM         FOG       52  52 100 VRB2      29.76F VSB 1/4
$$
                ***SASKATCHEWAN***

CITY           SKY/WX    TMP DP  RH WIND       PRES   REMARKS
ESTEVAN        CLEAR     61  57  88 SE7       30.00F
KINDERSLEY     MOCLDY    61  57  88 N5        29.95S
LLOYDMINSTER   PTCLDY    57  55  94 SW8       29.96S
PRINCE ALBERT  LGT RAIN  61  57  88 NW3       29.91F
REGINA         CLEAR     57  54  88 SE6       29.99S
YORKTON        CLEAR     61  55  82 SW8       29.95S
N. BATTLEFORD  MOCLDY    61  57  88 S6        29.96F
LA RONGE       PTCLDY    63  54  72 W8        29.80R
SASKATOON      MOCLDY    59  57  94 W6        29.97R
SWIFT CURRENT  CLEAR     59  57  94 S9        29.96S
$$
NOTE: THESE ARE AUTOMATED STATIONS WITH LIMITED QUALITY CONTROL
      "FAIR" INDICATES FEW OR NO CLOUDS BELOW 12,000 FEET WITH NO
      SIGNIFICANT WEATHER AND/OR OBSTRUCTIONS TO VISIBILITY.
      SKY/WX - SKY CONDITION AND SIGNIFICANT WEATHER.
      TMP - AIR TEMPERATURE.    DP   - DEWPOINT TEMPERATURE.
      RH  - RELATIVE HUMIDITY.  PRES - PRESSURE.
      HX  - HEAT INDEX.         WCI  - WIND CHILL INDEX.
$



USA.gov is the U.S. government's official web portal to all federal, state and local government web resources and services.